Regional Weather Roundup
Issued by NWS

Home | Current Version | Previous Version | Text Only | Print | Product List | Glossary On
Versions: 1 2 3 4 5 6 7 8 9 10 11 12 13 14 15 16 17 18 19 20 21 22 23 24 25 26 27 28 29 30 31 32 33 34 35 36 37 38 39 40 41 42 43 44 45 46 47 48 49 50
649
ASUS44 KEWX 240103
RWRTX
SOUTH TEXAS REGIONAL WEATHER ROUNDUP
NATIONAL WEATHER SERVICE AUSTIN/SAN ANTONIO TX
800 PM CDT SUN APR 23 2017

NOTE: "FAIR" INDICATED FEW OR NO CLOUDS BELOW 12,000 FEET WITH NO
SIGNIFICANT WEATHER AND/OR OBSTRUCTIONS TO VISIBILITY.

* - THESE STATIONS ARE NOT NWS OR FAA STATIONS...AND ARE NOT SUBJECT
    TO NWS AND FAA QUALITY CONTROL.

TXZ171-172-183>190-240200-
TEXAS HILL COUNTRY AND EDWARDS PLATEAU

CITY           SKY/WX    TMP DP  RH WIND       PRES   REMARKS
JUNCTION       CLEAR     72  33  24 E8        30.01F
*LLANO         CLEAR     70  43  37 CALM      30.05S
BURNET         CLEAR     69  37  30 N3        30.04S
*HORSESHOE BAY CLEAR     69  39  33 NE3       30.02S
*KERRVILLE     CLEAR     69  41  35 NE5       30.03S
*FREDERICKSBRG CLEAR     66  36  32 N6        30.03F
*ROCKSPRINGS   CLEAR     72  39  30 CALM      30.05S
*BOERNE STAGE  CLEAR     66  37  34 CALM      30.03S
*CASTROVILLE   CLEAR     72  38  28 NE3       30.00S
HONDO          CLEAR     71  43  36 E6        29.99F
*UVALDE        CLEAR     67  50  54 CALM      30.00S
DEL RIO        NOT AVBL
LAUGHLIN AFB   CLEAR     73  45  36 S8        29.98S
CARRIZO SPRGS  CLEAR     72  41  33 CALM      29.99S
*EAGLE PASS    NOT AVBL
$$

TXZ173-191>194-202-209-217>225-228-240200-
CENTRAL AND SOUTH CENTRAL TEXAS

CITY           SKY/WX    TMP DP  RH WIND       PRES   REMARKS
GEORGETOWN     CLEAR     70  39  32 NE5       30.01S
AUSTIN/BERGSTM CLEAR     70  42  36 NE8       30.00S
AUSTIN/MABRY   CLEAR     71  41  33 CALM      30.01S
*AUSTIN/EXEC   CLEAR     66  43  42 CALM      30.01S
*LAGO VISTA    CLEAR     66  41  40 NE5       30.03R
SAN MARCOS     CLEAR     70  41  35 NE7       30.01S
NEW BRAUNFELS  CLEAR     68  45  43 NE7       29.99S
RANDOLPH AFB   CLEAR     70  40  33 N5        29.99F
PT SAN ANTONIO CLEAR     71  41  33 NE8       29.98S
SAN ANTONIO    CLEAR     71  40  32 NE7       30.00S
STINSON FIELD  CLEAR     74  40  29 NE5       29.98S
*LA GRANGE     CLEAR     69  47  46 N3        29.99S
*GIDDINGS      CLEAR     67  46  46 CALM      30.01F
*GONZALES      CLEAR     69  47  45 NE5       29.99F
$$

TXZ163>164-176>182-195>201-210>213-226-227-235-240200-
SOUTHEAST TEXAS

CITY           SKY/WX    TMP DP  RH WIND       PRES   REMARKS
COLLEGE STN    CLEAR     66  45  46 N7        30.00S
*BRYAN         CLEAR     65  46  50 CALM      30.02R
*CALDWELL      NOT AVBL
*CROCKETT      CLEAR     63  46  55 CALM      30.03R
*BRENHAM       CLEAR     65  48  54 N7        30.01S
HUNTSVILLE     CLEAR     66  44  45 VRB3      30.00R
CONROE         CLEAR     63  49  60 CALM      30.00R
HOUSTON BUSH   CLEAR     68  47  46 N7        29.99R
HOUSTON HOBBY  PTCLDY    68  46  45 N12       29.98R
*HOUSTON SW AP CLEAR     66  48  51 NW5       29.99R
PEARLAND       CLEAR     71  45  39 N8        29.99R
HOUSTON HOOKS  CLEAR     67  46  47 N6        29.99R
ELLINGTON FLD  NOT AVBL
SUGAR LAND     CLEAR     67  46  47 N9        29.98R
*HOUSTON EXEC  CLEAR     64  48  55 N8        30.00S
*CLEVELAND MUN CLEAR     61  55  78 CALM      29.99S
*WHARTON       CLEAR     64  46  50 N5        30.00R
*COLUMBUS      FAIR      66  44  44 N3        30.01R
*EAGLE LAKE    CLEAR     67  49  51 N3        29.99S
$$

TXZ214>216-236>238-240200-
THE UPPER TEXAS COAST

CITY           SKY/WX    TMP DP  RH WIND       PRES   REMARKS
*ORANGE        CLEAR     63  53  69 CALM      29.99R
PORT ARTHUR    CLEAR     65  49  56 N7        29.96S
GALVESTON      CLEAR     70  51  51 N16       29.98R
ANGLETON       CLEAR     67  49  52 NW5       29.98R
*BAY CITY      CLEAR     68  50  53 N5        29.98S
PALACIOS       CLEAR     68  45  43 N8        29.98S
$$

TXZ229>234-239>247-240200-
TEXAS COASTAL BEND AND RIO GRANDE PLAINS

CITY           SKY/WX    TMP DP  RH WIND       PRES   REMARKS
VICTORIA       CLEAR     67  47  48 N7        29.99S
*BEEVILLE      CLEAR     71  44  37 NE6       29.99R
ROCKPORT       CLEAR     72  43  35 N8        29.98S
*PORT ARANSAS  CLEAR     72  48  42 N8        29.98R
*PORT LAVACA   CLEAR     70  51  50 CALM      29.99S
*INGLESIDE     CLEAR     74  44  34 N9        29.98R
CORPUS CHRISTI CLEAR     71  46  40 N8        29.98R
CORPUS NAS     CLEAR     75  45  34 N13       29.98R
*ROBSTOWN      CLEAR     74  42  31 NE5       29.99R
ALICE          CLEAR     72  41  32 N6        29.98R
KINGSVILLE NAS CLEAR     72  47  40 NE5       29.98S
COTULLA        CLEAR     73  41  31 CALM      29.99S
*FAITH RANCH   CLEAR     75  37  25 NE7       29.99S
LAREDO         CLEAR     74  40  29 NE6       29.99S
$$

TXZ248>255-240200-
DEEP SOUTH TEXAS

CITY           SKY/WX    TMP DP  RH WIND       PRES   REMARKS
BROWNSVILLE    CLEAR     70  50  49 NE7       30.01R
PORT ISABEL    CLEAR     70  52  52 E3        30.01R
*SOUTH PADRE   NOT AVBL
HARLINGEN      CLEAR     70  50  49 E8        29.99R
*HEBBRONVILLE  CLEAR     73  40  30 CALM      30.01R
MCALLEN        CLEAR     77  42  28 NE6       29.99S
*WESLACO       CLEAR     73  43  34 NE3       29.99S
FALFURRIAS     CLEAR     74  40  29 CALM      29.99R
EDINBURG       CLEAR     75  40  28 N5        30.00S
*ZAPATA        CLEAR     74  42  31 CALM      29.99S
$$

TXZ213>215-236>238-242>244-246-247-251-254-255-240200-
CMAN STATIONS

STATION/POSITION TIME  TEMP    WIND        PRES    WAVE
                       AIR SEA DIR/SP/G            HT/PER
                 (UTC) (F)     (DEG/KT/KT) (MB)    (FT/S)
SABINE PASS      0030   68 77   10/ 13/ 17 1016.2
SEA RIM ST PARK  0000   68     350/  9/ 12 1015.1
NORTH JETTY/GLS  0030      74  360/ 15/ 17   N/A
EAGLE POINT      0030   69 75   10/  7/ 11 1014.7
MORGANS POINT    0030   70 76   20/  8/ 13 1014.8
MISSION/ARANSAS  0000   74                 1015.0
PORT O`CONNOR    0030   71     340/ 14/ 16 1014.8
PORT ARANSAS     0000   74 77  360/ 11/ 12 1015.4
MALAQUITE BEACH  0030   75 78   10/ 10/ 13 1015.6
BAFFIN BAY       0030   75 77  320/  8/ 11 1015.3
PORT ISABEL      0030   71 78   10/  5/  8 1015.8
$$

GMZ080-GMZ150>470-240200-
OFFSHORE BUOY REPORTS

STATION/POSITION TIME  TEMP    WIND        PRES    WAVE
                       AIR SEA DIR/SP/G            HT/PER
                 (UTC) (F)     (DEG/KT/KT) (MB)    (FT/S)
20 E GALVESTON   2350   70 75  330/ 14/ 17 1014.3    2/ 4
90 E PT ARANSAS  2350   71 76  330/ 14/ 17 1014.7    4/ 6
35 NE PT MANSFLD 2350   70     350/  8/ 10 1014.5    5/ 8
200 E PT ISABEL  2350   70 79  340/ 16/ 19 1014.3    6/ 8
$$




USA.gov is the U.S. government's official web portal to all federal, state and local government web resources and services.